STARLINK-11175, 60191

Orbit data source: Space-Track

STARLINK-11175, 60191 is a payload satellite owned by SpaceX/Seattle (US) in LEO that was launched on Wed, 03 Jul 2024 UTC via an FALCON 9 launch vehicle from the Air Force Eastern Test Range (AFETR). Payload-class satellites include a variety of spacecraft equipped with specific instruments for various scientific and technological missions. These include communications satellites like Starlink; space stations such as the ISS; scientific satellites like the Hubble; Earth observation satellites from companies like Planet Labs, Umbra, and HawkEye 360; GPS; miniature CubeSats for education and research; and military/defense satellites.

Loading next visibility...
Identifier
60191, 2024-124J
Orbit
LEO
Country
Flag of USUS
Related business
Manufacturer
SpaceX/Seattle
Mission
Operational Commercial Communications
Bus & Motor
STARLINK V2MD, Unknown motor
Mass
960 kg wet, ~910 kg dry
Launch date (UTC)
2024-07-03 (1 year ago)
Launch vehicle
FALCON 9
Launch site
Air Force Eastern Test Range (AFETR)
Object type
Payload
Rocket body
Debris
Shape & HBR
Box + 2 Pan, 14.5 m
Radar Cross Section
36.964 m², Large (>1 m²)

Expand to show TLE details & history
Last TLE update: 2 days ago

TLE from 2 days ago
0 STARLINK-11175
1 60191U 24124J   25258.42267312  .00018875  00000-0  16012-3 0  9991
2 60191  53.1573 305.4602 0001096  71.3911 288.7226 15.69735813 69009
Epoch: 2025-09-15T10:08Z
TLE epoch observation values (Epoch: 2025-09-15T10:08:38.957Z)
Latitude
-0.00001°
Longitude
158.67032°
Altitude
360.331 km
Speed
7.694 km/s
True Right ascension
20h 21m 50s
True Declination
0° 00' 00"
Sunlit
Object was in full shadow at epoch
Visualization orbit readout
Latitude
Unknown
Longitude
Unknown
Altitude
Unknown
Speed
Unknown
Apparent Right ascension
Unknown
Apparent Declination
Unknown
Sunlit
N/A
Visualization observer readout
Local Sidereal Time
18:47:44
Azimuth
Unknown
Elevation
Unknown
Doppler factor
Unknown
Orbital elements
Apogee altitude
360.653 km
Perigee altitude
359.176 km
Semi-major axis
6,738.051 km
Eccentricity
0.00011
Inclination
53.1573°
RAAN
305.4602°
Arg. of periapsis
71.3911°
True anomaly
288.7107°
Mean anomaly
288.7226°
Eccentric anomaly
288.71665°
Mean motion
3.92412 °/min
Orbital period
91.74 mins
BSTAR
0.00016012
Loading maneuver chart data...
Computing Atmospheric mass density...
Loading historical data...
Loading historical data...
Loading historical data...
Loading historical data...
Loading historical data...
Loading historical data...
Loading historical data...

Documentation

Showing up to 5 results
|